GW1675 Weather Reports


time (UTC)temp
F
wind
direction
speed
knots
gust
knots
rain 1hr
in
rain 24hr
in
rain mn
in
humidity
%
barometer
mb
20260904143055 86 158 7.0 12.2 0.00 0.00 0.00 72 1021.0
20260904141555 85 118 4.3 7.8 0.00 0.00 0.00 71 1019.7
20260904140104 84 118 4.3 9.6 0.00 0.00 0.00 71 1020.3
20260904134601 83 122 7.8 10.4 0.00 0.00 0.00 71 1020.4
20260904133059 83 122 0.0 3.5 0.00 0.00 0.00 71 1021.8
20260904131607 83 122 0.9 2.6 0.00 0.00 0.00 71 1022.2
20260904130050 82 122 0.0 3.5 0.00 0.00 0.00 71 1022.4
20260904124557 82 122 1.7 5.2 0.00 0.00 0.00 70 1022.8
20260904123058 82 122 0.0 2.6 0.00 0.00 0.00 70 1022.8
20260904121556 81 0 0.0 3.5 0.00 0.00 0.00 70 1022.6
20260904114605 79 128 0.9 4.3 0.00 0.00 0.00 70 1023.2
20260904113057 78 0 1.7 7.0 0.00 0.00 0.00 69 1023.1
20260904111606 78 127 3.5 7.8 0.00 0.00 0.00 69 1023.4
20260904104601 78 128 2.6 7.0 0.00 0.00 0.00 69 1023.1
20260904103058 77 128 2.6 7.8 0.00 0.00 0.00 69 1023.2
20260904101558 77 128 1.7 7.8 0.00 0.00 0.00 69 1023.2
20260904100105 76 128 1.7 7.0 0.00 0.00 0.00 69 1022.9
20260904094609 76 0 1.7 7.0 0.00 0.00 0.00 68 1023.2
20260904093108 76 129 3.5 7.8 0.00 0.00 0.00 68 1023.4
20260904091606 75 133 0.0 7.8 0.00 0.00 0.00 68 1023.3
20260904090101 75 134 2.6 4.3 0.00 0.00 0.00 68 1023.1
20260904084559 75 134 0.0 3.5 0.00 0.00 0.00 68 1023.1
20260904083052 75 0 0.9 2.6 0.00 0.00 0.00 68 1022.9
20260904081604 74 134 2.6 5.2 0.00 0.00 0.00 68 1022.1
20260904080056 74 134 0.9 4.3 0.00 0.00 0.00 68 1022.1
20260904074600 74 135 0.9 6.1 0.00 0.00 0.00 68 1022.6
20260904073115 74 135 0.9 1.7 0.00 0.00 0.00 67 1022.8
20260904071559 74 135 1.7 4.3 0.00 0.00 0.00 67 1022.8
20260904070106 74 138 1.7 7.8 0.00 0.00 0.00 67 1022.8
20260904064605 75 0 1.7 7.8 0.00 0.00 0.00 67 1022.7
20260904063107 76 138 3.5 7.0 0.00 0.00 0.00 68 1022.5
20260904061557 76 0 0.0 1.7 0.00 0.00 0.00 67 1021.8
20260904060103 76 0 0.9 2.6 0.00 0.00 0.00 67 1021.5
20260904054633 76 0 0.9 3.5 0.00 0.00 0.00 67 1021.4
20260904053104 75 137 1.7 5.2 0.00 0.00 0.00 67 1020.9
20260904051600 74 137 2.6 6.1 0.00 0.00 0.00 67 1020.9
20260904050054 74 149 2.6 7.0 0.00 0.00 0.00 67 1020.9
20260904044559 73 159 1.7 3.5 0.00 0.00 0.00 67 1021.0
20260904043102 73 160 3.5 6.1 0.00 0.00 0.00 66 1021.0
20260904041607 74 165 4.3 7.8 0.00 0.00 0.00 67 1021.4
20260904034556 74 0 0.0 0.0 0.00 0.00 0.00 67 1021.4
20260904033102 75 0 0.0 0.0 0.00 0.00 0.00 67 1021.3
20260904031605 75 0 0.0 0.9 0.00 0.00 0.00 67 1021.0
20260904030057 76 177 0.9 3.5 0.00 0.00 0.00 67 1021.2
20260904024600 76 177 0.0 0.0 0.00 0.00 0.00 67 1020.8
20260904023107 76 0 0.0 4.3 0.00 0.00 0.00 67 1021.0
20260904021600 77 183 0.9 2.6 0.00 0.00 0.00 67 1021.0
20260904020101 78 183 0.0 4.3 0.00 0.00 0.00 67 1021.3
20260904014616 78 183 2.6 6.1 0.00 0.00 0.00 67 1021.5
20260904013118 78 0 0.9 7.8 0.00 0.00 0.00 67 1021.5
20260904011558 78 183 3.5 7.8 0.00 0.00 0.00 67 1021.8
20260904010112 78 183 0.9 3.5 0.00 0.00 0.00 67 1021.9
20260904004616 78 183 0.9 3.5 0.00 0.00 0.00 67 1022.2
20260904003123 75 0 0.0 0.0 0.00 0.00 0.00 66 1021.7
20260904001555 76 0 0.0 0.0 0.00 0.00 0.00 66 1021.6
20260904000054 76 0 0.0 0.0 0.00 0.00 0.00 66 1021.5
20260903234601 76 0 0.0 0.0 0.00 0.00 0.00 66 1021.6
20260903233103 76 0 0.0 0.0 0.00 0.00 0.00 66 1021.3
20260903231559 76 0 0.0 0.0 0.00 0.00 0.00 66 1021.4
20260903224554 77 0 0.0 0.0 0.00 0.00 0.00 66 1021.2
20260903223109 77 0 0.0 0.0 0.00 0.00 0.00 66 1021.1
20260903221556 77 0 0.0 0.0 0.00 0.00 0.00 66 1020.8
20260903220057 78 0 0.0 0.0 0.00 0.00 0.00 66 1020.9
20260903214553 79 0 0.0 0.0 0.00 0.00 0.00 66 1020.8
20260903213058 80 0 0.0 0.0 0.00 0.00 0.00 66 1020.8
20260903211608 80 0 0.0 1.7 0.00 0.00 0.00 66 1020.8
20260903210101 80 183 0.9 3.5 0.00 0.00 0.00 66 1020.8
20260903204603 80 184 0.9 3.5 0.00 0.00 0.00 66 1020.7
20260903203059 81 183 0.9 1.7 0.00 0.00 0.00 66 1020.6
20260903201602 80 183 0.9 0.9 0.00 0.00 0.00 66 1020.3
20260903200056 81 183 0.9 1.7 0.00 0.00 0.00 66 1020.3
20260903194559 81 0 0.0 1.7 0.00 0.00 0.00 66 1020.0
20260903193105 81 183 0.0 1.7 0.00 0.00 0.00 66 1020.0
20260903191554 82 183 0.0 2.6 0.00 0.00 0.00 66 1019.8
20260903190059 82 183 0.0 1.7 0.00 0.00 0.00 66 1019.9
20260903184602 82 183 1.7 3.5 0.00 0.00 0.00 66 1019.9
20260903183102 83 183 1.7 4.3 0.00 0.00 0.00 66 1020.0
20260903181556 84 183 2.6 5.2 0.00 0.00 0.00 66 1020.0
20260903180055 84 183 2.6 5.2 0.00 0.00 0.00 67 1020.0
20260903174611 84 183 3.5 6.1 0.00 0.00 0.00 67 1020.1
20260903173105 85 183 5.2 9.6 0.00 0.00 0.00 67 1020.0
20260903171601 85 183 4.3 9.6 0.00 0.00 0.00 67 1020.0
20260903170055 85 183 5.2 7.0 0.00 0.00 0.00 67 1019.8
20260903164608 86 184 6.1 9.6 0.00 0.00 0.00 67 1020.0
20260903163058 85 183 4.3 9.6 0.00 0.00 0.00 67 1020.0
20260903161558 86 183 7.0 13.0 0.00 0.00 0.00 67 1020.0
20260903160110 91 158 4.3 10.4 0.00 0.00 0.00 68 1020.1
20260903154601 92 155 3.5 6.1 0.00 0.00 0.00 68 1019.8
20260903153109 93 155 3.5 6.1 0.00 0.00 0.00 69 1019.9
20260903151555 93 155 3.5 7.0 0.00 0.00 0.00 69 1020.0
20260903150105 93 155 1.7 5.2 0.00 0.00 0.00 69 1019.9
20260903144601 94 155 3.5 6.1 0.00 0.00 0.00 69 1020.1